Wetbulb
35.37 35.19 34.47 34.42 33.94 33.75 34.07 34.35 35.38 34.94 35.20 34.23 34.09 33.55 32.86 32.59 31.90 31.61 31.59 30.98 31.19 30.09
34.74 34.66 34.31 34.49 34.74 34.05 34.64 34.38 34.76 35.05 34.46 34.34 33.87 32.74 32.25 31.52 30.40 31.14 31.15 30.81 30.49 29.58
33.94 34.76 34.43 34.66 32.76 33.62 34.54 34.40 34.48 34.80 34.27 33.68 32.81 32.27 31.77 30.37 29.73 29.96 30.94 30.26 29.27 28.41
34.33 34.38 33.70 33.24 33.35 33.24 34.04 34.17 34.03 34.08 33.58 32.37 31.40 31.02 31.48 30.32 29.67 28.73 29.43 29.90 28.98 28.48
34.41 33.66 33.27 33.37 33.38 33.92 33.54 34.32 34.07 33.55 32.53 31.31 30.04 30.17 30.93 29.84 29.97 28.86 28.76 28.90 28.82 28.49
33.11 31.59 31.89 32.89 33.11 33.43 33.60 33.55 33.40 32.63 30.94 29.22 29.15 29.65 30.61 30.40 30.99 30.09 29.59 28.98 28.38 28.16
32.01 32.26 32.46 32.21 31.55 32.01 32.57 31.78 30.94 30.17 29.14 29.05 28.73 29.38 29.62 30.86 30.48 29.83 29.43 29.09 28.70 28.56
32.29 31.96 30.96 30.09 30.47 30.74 30.44 29.70 29.32 28.74 29.16 29.01 28.76 28.22 30.04 31.34 29.37 29.00 28.13 28.53 28.85 28.96
31.27 30.13 29.26 28.60 28.66 28.60 28.49 28.57 28.86 28.39 28.20 28.08 28.09 27.98 29.92 30.65 28.94 28.61 27.65 26.98 27.91 28.93
29.12 28.02 27.37 27.60 27.61 27.42 27.58 28.25 28.05 28.03 28.11 27.83 28.52 28.36 30.54 29.80 29.07 28.33 28.24 27.89 27.61 27.65
27.86 27.08 27.25 27.40 26.97 27.08 27.66 27.45 27.43 27.76 28.00 27.50 27.62 28.04 29.37 29.08 28.54 28.15 28.87 28.47 28.24 28.13
27.44 26.90 26.79 26.46 26.57 27.17 27.15 27.76 27.63 27.93 27.56 27.26 27.44 27.68 28.54 28.45 27.42 27.67 27.98 28.62 28.53 28.87
27.68 26.97 26.46 26.47 26.36 27.14 27.88 27.68 27.67 27.47 27.77 26.47 26.76 27.16 27.82 27.82 26.86 26.27 26.83 27.75 27.75 27.60
28.13 27.85 27.82 27.76 27.63 27.17 27.30 27.72 27.62 27.39 27.60 27.16 26.72 26.81 26.94 27.28 26.21 25.52 25.43 25.47 25.71 26.95
MSLP
1030.77 1030.53 1030.38 1030.19 1030.04 1029.79 1029.53 1029.31 1029.28 1029.09 1028.97 1028.69 1028.28 1027.93 1027.46 1026.93 1026.67 1026.24 1025.85 1025.53 1025.14 1024.74
1031.01 1030.85 1030.64 1030.46 1030.24 1029.91 1029.60 1029.35 1029.27 1029.01 1028.85 1028.52 1028.16 1027.88 1027.35 1026.92 1026.67 1026.11 1025.60 1025.35 1024.94 1024.51
1031.17 1031.03 1030.87 1030.61 1030.45 1030.08 1029.46 1029.27 1029.03 1028.92 1028.69 1028.36 1028.02 1027.65 1027.13 1026.79 1026.51 1025.79 1025.35 1025.03 1024.67 1024.27
1031.23 1031.02 1030.88 1030.56 1030.40 1030.13 1029.72 1029.27 1028.97 1028.91 1028.62 1028.33 1027.97 1027.51 1026.89 1026.47 1026.05 1025.55 1025.05 1024.68 1024.20 1023.70
1031.34 1031.13 1030.82 1030.55 1030.30 1030.08 1029.63 1029.22 1029.19 1028.99 1028.68 1028.38 1028.00 1027.47 1026.79 1026.29 1025.64 1025.11 1024.63 1024.30 1023.89 1023.33
1031.59 1031.36 1031.20 1030.87 1030.57 1030.26 1029.94 1029.46 1029.33 1029.07 1028.77 1028.52 1028.06 1027.41 1026.79 1026.13 1025.37 1024.81 1024.34 1023.90 1023.42 1022.92
1031.82 1031.70 1031.52 1031.21 1030.95 1030.56 1030.27 1029.85 1029.57 1029.26 1029.00 1028.71 1028.15 1027.43 1026.85 1025.92 1025.11 1024.51 1024.08 1023.59 1023.12 1022.59
1032.20 1032.07 1031.95 1031.58 1031.24 1030.97 1030.69 1030.17 1029.88 1029.47 1029.17 1028.70 1028.07 1027.65 1026.83 1025.83 1025.03 1024.36 1023.81 1023.23 1022.68 1022.19
1032.44 1032.31 1032.10 1031.73 1031.45 1031.21 1030.77 1030.33 1029.95 1029.57 1029.21 1028.69 1028.17 1027.87 1026.87 1025.85 1024.89 1024.25 1023.59 1022.91 1022.37 1021.78
1032.83 1032.63 1032.40 1032.14 1031.85 1031.42 1030.93 1030.47 1030.01 1029.62 1029.21 1028.73 1028.14 1027.83 1026.67 1025.78 1024.81 1024.08 1023.43 1022.81 1022.22 1021.69
1033.15 1032.94 1032.76 1032.50 1032.09 1031.67 1031.19 1030.70 1030.23 1029.75 1029.33 1028.85 1028.25 1027.73 1026.68 1025.77 1024.72 1023.99 1023.26 1022.67 1022.19 1021.68
1033.55 1033.31 1033.12 1032.73 1032.34 1031.94 1031.42 1030.83 1030.41 1030.00 1029.47 1028.89 1028.25 1027.82 1026.80 1025.84 1024.78 1023.89 1023.10 1022.52 1022.09 1021.66
1033.91 1033.66 1033.39 1033.08 1032.68 1032.29 1031.70 1031.17 1030.82 1030.19 1029.68 1029.18 1028.47 1027.88 1027.05 1026.14 1025.11 1024.17 1023.20 1022.48 1021.98 1021.44
1034.11 1033.87 1033.59 1033.27 1032.87 1032.39 1031.90 1031.43 1030.91 1030.27 1029.75 1029.22 1028.75 1028.05 1027.49 1026.58 1025.69 1024.91 1023.81 1023.02 1022.24 1021.57
Wind_Speed
5 4 4 5 5 5 5 5 7 6 7 9 10 10 11 8 8 8 7 9 8 7
5 5 5 6 5 5 5 6 7 7 7 10 10 11 12 8 9 9 8 9 8 7
4 5 6 6 7 7 7 7 8 7 8 10 11 12 12 9 10 11 8 7 9 7
5 6 6 6 7 8 8 8 8 7 9 11 13 13 11 11 11 12 11 9 9 10
5 6 7 8 8 9 9 7 7 8 10 12 14 12 12 13 12 13 12 10 11 11
7 7 8 9 9 9 9 8 9 10 12 13 13 11 12 15 11 14 12 11 11 11
8 8 8 9 10 10 9 9 10 11 12 12 12 11 14 17 13 14 11 11 10 10
7 8 8 9 10 10 10 10 11 11 11 12 11 9 16 16 15 13 12 11 10 10
7 8 9 9 10 10 11 11 11 11 12 12 9 18 22 19 14 13 12 11 11 11
7 8 9 9 9 10 12 12 12 12 12 12 12 21 24 23 12 12 12 11 11 11
7 8 9 9 10 11 11 12 12 12 13 12 11 22 24 25 14 12 12 11 11 12
7 8 9 10 11 11 11 11 12 12 14 14 13 22 24 21 13 13 13 12 11 12
6 7 8 9 10 10 10 11 10 12 12 14 14 20 26 21 11 14 11 12 13 16
5 6 7 8 9 10 11 11 12 13 12 13 14 17 24 24 13 11 10 10 11 11
Wind_Direction
34 24 12 5 352 346 338 337 339 333 337 344 344 340 338 333 333 326 320 312 301 292
22 10 1 352 336 336 336 333 333 332 338 342 345 343 340 338 333 328 322 315 305 300
8 2 355 346 349 339 338 334 333 336 339 343 345 342 340 340 326 331 324 314 313 307
12 7 2 353 345 341 334 342 341 340 341 345 343 338 335 341 328 333 324 316 304 303
16 8 3 353 348 345 344 353 355 345 344 343 338 334 332 330 332 332 326 319 313 308
15 13 2 360 2 1 359 3 356 352 348 341 339 334 336 332 321 330 323 320 313 310
19 13 7 8 9 8 2 4 1 353 347 344 340 339 336 333 333 331 329 321 318 310
20 14 11 9 8 5 1 1 355 354 352 348 343 347 332 334 338 337 331 330 325 320
15 11 11 10 7 6 5 4 360 357 352 347 348 342 336 346 337 335 338 332 332 329
16 20 18 14 12 11 10 5 3 358 351 349 350 343 343 348 339 334 340 335 333 331
27 27 20 17 17 14 5 5 1 357 355 351 359 348 350 348 342 335 341 339 334 330
32 29 19 17 14 10 4 2 359 356 357 356 358 353 354 351 344 341 345 342 341 335
37 26 20 13 9 3 2 3 358 355 360 1 358 358 358 359 348 345 345 346 342 345
23 14 10 3 5 1 3 4 2 0 3 1 5 358 360 1 355 349 341 345 343 342